Temp
1 1 1 1 1 1 1 1 1 0 0 0 0 0 0 0 -0 -0 -0 -0 -0 -0 -1 -1 -0 -0 -0 -0 -0 -0 -0 -0 -0 -0 -0 -0 0 0 -0 -0 -0 0 0 -0 -0 0 0 0 0 0 0 1
1 1 1 1 0 0 0 0 0 -0 -0 -0 -0 -1 -0 -0 -0 -1 -1 -1 -1 -1 -1 -1 -1 -1 -1 -1 -1 -1 -1 -1 -1 -1 -1 -1 -0 -0 -0 -1 -1 -0 -0 -0 -0 -1 -1 -0 -0 -0 -0 -0
-0 -0 -0 -0 -0 -1 -1 -1 -1 -1 -1 -1 -1 -1 -1 -1 -1 -1 -1 -1 -1 -1 -1 -1 -1 -1 -1 -1 -1 -1 -1 -1 -1 -1 -1 -1 -1 -1 -1 -1 -1 -1 -1 -1 -1 -1 -1 -1 -1 -1 -1 -1
-2 -2 -2 -2 -2 -2 -2 -2 -2 -2 -2 -2 -2 -2 -2 -2 -2 -2 -2 -2 -2 -2 -2 -2 -2 -2 -2 -2 -2 -2 -2 -2 -2 -2 -2 -2 -2 -2 -1 -1 -1 -1 -1 -1 -1 -1 -1 -1 -1 -1 -1 -1
-2 -2 -2 -3 -3 -3 -3 -3 -3 -3 -3 -3 -3 -3 -3 -3 -3 -3 -3 -3 -3 -3 -3 -3 -3 -3 -3 -3 -3 -3 -3 -2 -2 -2 -2 -2 -2 -2 -2 -2 -2 -2 -2 -2 -2 -2 -2 -2 -2 -2 -2 -2
-3 -3 -3 -3 -3 -3 -3 -3 -3 -3 -3 -3 -3 -3 -3 -3 -3 -3 -3 -3 -3 -4 -4 -4 -4 -4 -4 -4 -4 -4 -4 -3 -3 -3 -3 -3 -3 -2 -2 -2 -2 -2 -2 -2 -2 -2 -2 -2 -2 -2 -2 -2
-3 -3 -3 -3 -3 -3 -3 -3 -3 -3 -3 -3 -3 -3 -3 -3 -3 -3 -3 -3 -4 -4 -4 -4 -4 -4 -4 -4 -4 -4 -4 -4 -4 -4 -4 -3 -3 -3 -3 -3 -3 -3 -3 -3 -3 -3 -3 -3 -3 -3 -3 -3
-3 -3 -3 -3 -3 -3 -3 -3 -3 -3 -3 -3 -3 -3 -3 -3 -4 -4 -4 -4 -4 -4 -4 -4 -4 -4 -4 -4 -4 -4 -4 -4 -4 -4 -4 -4 -4 -4 -4 -3 -3 -3 -3 -3 -3 -3 -3 -3 -3 -3 -3 -3
-2 -2 -3 -3 -3 -3 -3 -3 -3 -3 -3 -3 -3 -3 -4 -4 -4 -4 -4 -4 -4 -4 -4 -4 -5 -5 -5 -5 -5 -5 -5 -5 -5 -4 -4 -4 -4 -4 -4 -4 -4 -4 -4 -3 -3 -4 -3 -3 -3 -3 -3 -3
-2 -2 -3 -3 -2 -2 -2 -2 -3 -3 -3 -3 -3 -3 -3 -3 -4 -4 -4 -4 -4 -4 -5 -5 -5 -5 -5 -5 -5 -5 -5 -5 -5 -5 -5 -5 -5 -5 -4 -4 -4 -4 -4 -4 -4 -4 -4 -4 -4 -4 -4 -4
-3 -3 -3 -3 -3 -3 -3 -3 -3 -3 -3 -3 -3 -3 -4 -4 -4 -4 -4 -4 -4 -4 -5 -5 -5 -5 -5 -5 -5 -5 -5 -5 -5 -5 -5 -5 -5 -5 -5 -5 -5 -4 -4 -4 -4 -4 -4 -4 -4 -4 -4 -4
-3 -3 -3 -3 -3 -3 -4 -4 -4 -4 -4 -4 -4 -4 -4 -4 -4 -4 -4 -5 -5 -5 -5 -5 -5 -5 -5 -5 -5 -5 -5 -5 -6 -6 -6 -5 -5 -5 -5 -5 -5 -5 -5 -5 -5 -5 -5 -4 -4 -4 -4 -4
-3 -4 -4 -4 -4 -4 -4 -4 -4 -4 -4 -4 -5 -5 -5 -5 -5 -5 -5 -5 -5 -5 -5 -5 -6 -6 -6 -6 -6 -6 -6 -6 -6 -6 -6 -6 -6 -6 -6 -6 -5 -5 -5 -5 -5 -5 -5 -5 -5 -5 -5 -5
-4 -4 -4 -4 -5 -5 -5 -5 -5 -5 -5 -5 -5 -5 -5 -5 -5 -5 -5 -6 -6 -6 -6 -6 -6 -6 -6 -6 -6 -6 -6 -6 -6 -6 -6 -6 -6 -6 -6 -6 -6 -6 -6 -6 -6 -5 -5 -5 -5 -5 -5 -5
-5 -5 -5 -5 -5 -5 -5 -5 -5 -5 -5 -5 -5 -5 -6 -6 -6 -6 -6 -6 -6 -6 -6 -6 -6 -7 -7 -7 -7 -7 -7 -7 -7 -7 -6 -6 -6 -6 -6 -6 -6 -6 -6 -6 -6 -6 -6 -6 -6 -6 -6 -5
-5 -5 -5 -5 -5 -5 -6 -6 -6 -6 -6 -6 -6 -6 -6 -6 -6 -6 -6 -6 -6 -6 -6 -7 -7 -7 -7 -7 -7 -7 -7 -7 -7 -7 -7 -7 -7 -7 -6 -6 -6 -6 -6 -6 -6 -6 -6 -6 -6 -6 -6 -6
-6 -6 -6 -6 -6 -6 -6 -6 -6 -6 -6 -6 -6 -6 -6 -6 -6 -7 -7 -7 -7 -7 -7 -7 -7 -7 -7 -7 -7 -8 -8 -8 -8 -8 -8 -8 -8 -8 -7 -7 -7 -7 -7 -7 -7 -7 -7 -6 -6 -6 -6 -6
-6 -6 -6 -6 -6 -6 -6 -6 -6 -7 -7 -7 -7 -7 -7 -7 -7 -7 -7 -7 -7 -7 -7 -7 -7 -7 -7 -7 -8 -8 -8 -8 -8 -8 -8 -8 -8 -8 -8 -8 -8 -8 -7 -7 -7 -7 -7 -7 -7 -7 -7 -7
-6 -6 -6 -6 -7 -7 -7 -7 -7 -7 -7 -7 -7 -7 -7 -7 -7 -7 -7 -7 -7 -7 -7 -7 -7 -7 -7 -7 -8 -8 -8 -8 -8 -8 -9 -9 -9 -9 -9 -9 -9 -9 -8 -8 -8 -8 -8 -7 -7 -7 -7 -7
-7 -7 -7 -7 -7 -7 -7 -7 -7 -7 -7 -7 -7 -7 -7 -7 -7 -7 -7 -7 -7 -7 -8 -8 -8 -8 -8 -8 -8 -8 -8 -8 -8 -8 -9 -9 -9 -9 -9 -9 -9 -9 -9 -9 -9 -9 -8 -8 -8 -8 -8 -8
-7 -7 -7 -7 -7 -7 -7 -7 -7 -7 -7 -7 -7 -7 -8 -8 -8 -8 -8 -8 -8 -8 -8 -8 -8 -8 -8 -8 -8 -8 -8 -9 -9 -9 -9 -9 -9 -9 -9 -9 -9 -10 -10 -10 -10 -9 -9 -9 -9 -8 -8 -8
-7 -7 -7 -7 -7 -7 -7 -8 -8 -8 -8 -8 -8 -8 -8 -8 -8 -8 -8 -9 -9 -9 -9 -9 -9 -9 -9 -9 -9 -9 -9 -9 -9 -9 -9 -9 -9 -10 -10 -10 -10 -10 -10 -10 -10 -10 -10 -10 -10 -9 -9 -9
-7 -7 -7 -7 -7 -7 -8 -8 -8 -8 -8 -8 -8 -9 -9 -9 -9 -9 -9 -9 -9 -9 -9 -9 -9 -9 -9 -9 -9 -10 -10 -10 -10 -10 -10 -10 -10 -10 -10 -10 -10 -10 -10 -10 -10 -10 -10 -10 -10 -10 -10 -10
-7 -7 -7 -7 -8 -8 -8 -8 -8 -8 -8 -8 -9 -9 -9 -9 -9 -9 -9 -9 -9 -9 -9 -9 -10 -10 -10 -10 -10 -10 -10 -10 -10 -10 -10 -10 -10 -11 -11 -11 -11 -11 -11 -10 -10 -10 -10 -10 -10 -10 -10 -10
-7 -8 -8 -8 -8 -8 -9 -9 -9 -9 -9 -9 -9 -9 -9 -9 -9 -10 -10 -10 -10 -10 -10 -10 -10 -10 -10 -10 -10 -10 -10 -10 -10 -10 -11 -11 -11 -11 -11 -11 -12 -12 -11 -11 -11 -11 -10 -10 -10 -11 -11 -10
-8 -8 -8 -9 -9 -9 -9 -9 -9 -9 -9 -9 -9 -9 -10 -10 -10 -10 -10 -10 -10 -10 -10 -10 -10 -10 -11 -11 -11 -11 -11 -11 -11 -11 -11 -11 -11 -12 -12 -12 -12 -12 -12 -12 -12 -11 -11 -11 -11 -11 -11 -11
-8 -9 -9 -9 -9 -9 -9 -9 -9 -9 -9 -9 -10 -10 -10 -10 -10 -11 -11 -11 -11 -11 -11 -11 -11 -11 -11 -11 -12 -12 -12 -12 -12 -12 -12 -12 -12 -12 -13 -13 -13 -13 -13 -13 -13 -12 -12 -11 -11 -11 -11 -11
-9 -9 -9 -9 -9 -9 -9 -10 -10 -10 -10 -10 -10 -10 -11 -11 -11 -11 -11 -11 -11 -11 -11 -11 -11 -11 -12 -12 -12 -12 -12 -13 -13 -13 -13 -13 -13 -13 -13 -13 -14 -14 -14 -14 -14 -13 -13 -13 -12 -12 -11 -11
-9 -9 -9 -9 -9 -9 -10 -10 -10 -10 -10 -10 -10 -11 -11 -11 -11 -11 -11 -11 -12 -12 -12 -12 -12 -12 -12 -13 -13 -13 -13 -13 -13 -13 -14 -14 -14 -14 -14 -14 -14 -14 -15 -15 -15 -14 -14 -14 -13 -13 -12 -12
-9 -9 -9 -10 -10 -10 -10 -10 -10 -10 -10 -10 -11 -11 -11 -11 -11 -11 -12 -12 -12 -12 -12 -13 -13 -13 -13 -13 -14 -14 -14 -14 -14 -14 -14 -14 -15 -15 -15 -15 -15 -15 -15 -15 -15 -15 -15 -15 -15 -14 -13 -13
-9 -10 -10 -10 -10 -10 -10 -10 -10 -10 -11 -11 -11 -11 -11 -11 -12 -12 -12 -12 -13 -13 -13 -13 -13 -14 -14 -14 -14 -15 -15 -15 -15 -15 -15 -15 -15 -16 -16 -16 -16 -16 -16 -16 -16 -16 -16 -16 -16 -15 -15 -14
Height
3145 3145 3144 3144 3144 3143 3142 3141 3141 3140 3140 3139 3139 3138 3137 3137 3137 3137 3137 3137 3137 3137 3137 3136 3136 3136 3136 3136 3136 3136 3136 3136 3135 3136 3136 3136 3136 3136 3136 3136 3136 3136 3137 3137 3137 3137 3138 3138 3138 3138 3139 3139
3144 3143 3143 3142 3142 3141 3140 3139 3138 3138 3137 3137 3136 3136 3135 3135 3134 3134 3134 3134 3134 3134 3134 3134 3134 3133 3133 3133 3134 3134 3134 3133 3133 3133 3133 3133 3133 3134 3134 3133 3133 3133 3134 3134 3134 3135 3135 3135 3135 3136 3136 3136
3141 3141 3140 3140 3139 3138 3137 3136 3136 3135 3134 3134 3133 3133 3133 3132 3132 3132 3132 3132 3132 3132 3132 3132 3131 3131 3131 3130 3131 3131 3131 3131 3130 3130 3130 3130 3130 3131 3131 3131 3130 3130 3130 3131 3131 3131 3132 3132 3132 3133 3133 3133
3138 3137 3137 3136 3136 3135 3134 3133 3133 3132 3131 3131 3130 3130 3129 3129 3129 3129 3129 3129 3129 3129 3129 3129 3128 3128 3128 3128 3128 3128 3127 3127 3127 3127 3127 3127 3127 3127 3127 3127 3127 3127 3127 3127 3127 3128 3128 3129 3129 3129 3130 3130
3134 3134 3133 3133 3133 3132 3131 3130 3130 3129 3129 3128 3128 3127 3127 3126 3126 3125 3125 3125 3125 3125 3125 3125 3125 3125 3125 3125 3125 3125 3124 3124 3124 3123 3123 3123 3124 3124 3124 3124 3124 3124 3124 3124 3124 3124 3125 3125 3125 3126 3126 3127
3132 3131 3131 3130 3130 3129 3128 3128 3127 3126 3126 3125 3125 3124 3124 3123 3123 3122 3122 3122 3122 3122 3122 3122 3122 3122 3122 3122 3122 3122 3121 3121 3121 3120 3120 3120 3120 3120 3120 3120 3120 3121 3121 3121 3121 3121 3121 3121 3121 3122 3122 3123
3130 3129 3129 3128 3127 3127 3126 3125 3124 3124 3123 3123 3122 3122 3121 3121 3120 3120 3120 3119 3119 3119 3119 3119 3119 3119 3119 3119 3119 3119 3119 3118 3118 3117 3117 3116 3116 3116 3116 3116 3116 3117 3117 3117 3117 3117 3118 3118 3118 3118 3119 3119
3128 3127 3126 3126 3125 3125 3124 3123 3122 3122 3121 3120 3119 3119 3118 3118 3117 3117 3117 3116 3116 3116 3116 3116 3116 3116 3116 3116 3116 3116 3115 3115 3115 3115 3114 3114 3113 3113 3113 3113 3112 3113 3113 3113 3113 3113 3114 3114 3114 3114 3115 3115
3125 3124 3123 3123 3122 3122 3121 3121 3120 3119 3118 3118 3117 3116 3115 3115 3114 3114 3114 3113 3113 3113 3113 3113 3112 3112 3112 3112 3112 3112 3111 3111 3111 3111 3111 3111 3110 3110 3110 3109 3109 3109 3109 3109 3109 3109 3110 3110 3110 3110 3110 3111
3122 3121 3120 3120 3119 3118 3118 3117 3117 3116 3115 3115 3114 3113 3113 3112 3111 3111 3110 3110 3109 3109 3109 3109 3108 3108 3108 3108 3108 3108 3107 3107 3107 3107 3107 3107 3107 3106 3106 3106 3106 3105 3105 3105 3105 3105 3105 3106 3106 3106 3106 3106
3119 3118 3117 3116 3115 3114 3114 3113 3113 3112 3112 3111 3110 3110 3109 3108 3108 3107 3107 3106 3106 3105 3105 3105 3104 3104 3104 3104 3103 3103 3103 3103 3102 3102 3102 3102 3102 3102 3102 3102 3101 3101 3101 3101 3101 3101 3101 3101 3101 3102 3102 3102
3116 3115 3114 3113 3112 3111 3110 3109 3109 3108 3108 3107 3106 3106 3105 3105 3104 3103 3103 3102 3101 3101 3101 3100 3100 3100 3099 3099 3099 3098 3098 3098 3098 3098 3097 3097 3097 3097 3097 3097 3097 3097 3097 3096 3096 3096 3097 3097 3097 3097 3097 3097
3113 3112 3111 3110 3109 3108 3107 3106 3105 3105 3104 3103 3103 3102 3102 3101 3100 3099 3099 3098 3097 3097 3096 3096 3095 3095 3095 3094 3094 3094 3093 3093 3093 3093 3093 3092 3092 3092 3092 3092 3092 3092 3092 3092 3091 3091 3092 3092 3092 3092 3092 3092
3110 3109 3108 3108 3107 3106 3105 3104 3103 3102 3101 3101 3100 3099 3098 3098 3097 3096 3095 3094 3093 3093 3092 3091 3091 3090 3090 3089 3089 3089 3088 3088 3088 3088 3088 3087 3087 3087 3087 3087 3087 3087 3087 3087 3086 3086 3086 3087 3087 3087 3087 3087
3108 3107 3106 3105 3104 3103 3102 3101 3100 3100 3099 3098 3097 3096 3095 3095 3094 3093 3092 3091 3090 3089 3088 3087 3087 3086 3085 3085 3084 3083 3083 3083 3082 3082 3082 3082 3082 3082 3082 3082 3082 3081 3082 3082 3082 3081 3081 3081 3082 3082 3081 3082
3105 3104 3103 3102 3101 3100 3099 3098 3097 3096 3095 3095 3094 3093 3092 3091 3090 3090 3089 3088 3087 3086 3085 3084 3083 3082 3081 3080 3079 3079 3078 3078 3077 3077 3077 3076 3076 3076 3076 3076 3076 3076 3076 3076 3077 3077 3076 3076 3076 3076 3076 3076
3103 3102 3101 3100 3099 3098 3097 3096 3095 3093 3092 3091 3090 3089 3088 3087 3086 3085 3085 3084 3083 3082 3081 3080 3079 3078 3077 3076 3075 3074 3073 3073 3072 3072 3071 3071 3071 3070 3070 3070 3070 3070 3070 3070 3071 3071 3071 3071 3071 3071 3071 3071
3101 3100 3099 3098 3097 3095 3094 3093 3092 3091 3090 3088 3087 3086 3085 3084 3082 3081 3080 3079 3078 3077 3076 3075 3074 3073 3072 3071 3070 3069 3069 3068 3067 3066 3066 3066 3065 3065 3065 3064 3064 3064 3064 3065 3065 3065 3065 3065 3065 3065 3065 3065
3098 3097 3096 3095 3094 3093 3092 3090 3089 3088 3087 3085 3084 3083 3081 3080 3079 3077 3076 3075 3073 3072 3071 3070 3069 3068 3067 3066 3065 3064 3063 3062 3061 3061 3060 3060 3059 3059 3059 3058 3058 3058 3058 3058 3059 3059 3059 3059 3059 3059 3059 3060
3095 3094 3093 3091 3090 3089 3088 3086 3085 3084 3082 3081 3080 3078 3077 3075 3074 3073 3071 3070 3069 3067 3066 3065 3063 3062 3061 3060 3059 3058 3057 3056 3055 3054 3054 3053 3052 3052 3052 3052 3052 3051 3051 3052 3052 3053 3053 3053 3053 3053 3053 3053
3091 3090 3088 3087 3086 3084 3083 3081 3080 3079 3077 3076 3075 3073 3072 3071 3069 3068 3066 3065 3064 3062 3061 3059 3058 3057 3055 3054 3053 3052 3051 3050 3048 3048 3047 3047 3046 3045 3045 3045 3045 3044 3044 3044 3046 3046 3047 3047 3047 3047 3047 3046
3087 3086 3084 3083 3081 3080 3078 3077 3075 3074 3073 3071 3070 3069 3067 3066 3064 3063 3061 3060 3059 3057 3055 3054 3053 3051 3050 3049 3047 3046 3045 3044 3042 3041 3040 3039 3039 3038 3037 3037 3036 3036 3037 3037 3038 3039 3040 3040 3040 3040 3040 3039
3085 3083 3082 3080 3078 3077 3075 3073 3072 3070 3069 3068 3066 3065 3063 3062 3060 3058 3057 3055 3054 3052 3050 3049 3047 3046 3044 3043 3042 3040 3039 3038 3037 3035 3034 3033 3032 3031 3030 3029 3027 3027 3028 3029 3030 3030 3032 3033 3033 3033 3033 3032
3082 3080 3078 3076 3074 3073 3071 3070 3068 3067 3065 3064 3062 3061 3059 3058 3056 3054 3052 3051 3049 3047 3045 3044 3042 3041 3039 3037 3036 3035 3033 3032 3030 3029 3028 3027 3026 3025 3024 3022 3020 3019 3019 3020 3022 3022 3023 3024 3025 3026 3025 3025
3077 3075 3074 3072 3070 3069 3067 3066 3064 3063 3061 3060 3058 3056 3055 3053 3051 3049 3047 3045 3044 3042 3040 3038 3037 3035 3033 3032 3030 3028 3027 3025 3024 3022 3021 3020 3019 3017 3017 3016 3013 3012 3011 3011 3012 3013 3016 3017 3016 3016 3017 3017
3073 3071 3070 3068 3067 3065 3064 3062 3061 3059 3057 3055 3053 3052 3050 3048 3046 3044 3042 3040 3038 3036 3034 3033 3031 3029 3028 3026 3024 3023 3021 3019 3017 3016 3014 3013 3012 3010 3009 3008 3006 3005 3004 3002 3002 3003 3006 3009 3009 3008 3008 3009
3069 3068 3066 3065 3063 3061 3060 3058 3056 3054 3053 3051 3049 3046 3044 3042 3040 3038 3036 3034 3032 3030 3028 3026 3025 3023 3022 3020 3018 3017 3015 3013 3011 3010 3008 3006 3005 3004 3003 3001 3000 2998 2996 2995 2994 2994 2995 2997 2999 2999 3001 3001
3066 3064 3062 3061 3059 3057 3055 3053 3051 3049 3047 3045 3043 3041 3039 3037 3035 3032 3030 3028 3026 3024 3022 3020 3019 3017 3015 3014 3012 3010 3008 3006 3005 3003 3002 3000 2998 2997 2996 2995 2994 2992 2990 2988 2987 2986 2986 2986 2987 2988 2991 2993
3062 3060 3058 3056 3054 3052 3050 3048 3046 3044 3042 3040 3038 3036 3033 3031 3029 3027 3025 3023 3020 3018 3016 3014 3012 3010 3009 3007 3005 3003 3002 3000 2998 2996 2995 2993 2992 2990 2989 2988 2988 2987 2985 2983 2980 2979 2979 2978 2978 2978 2980 2982
3058 3056 3054 3052 3050 3048 3045 3043 3041 3039 3037 3035 3033 3030 3028 3026 3023 3021 3019 3017 3015 3013 3010 3008 3006 3004 3002 3000 2998 2996 2995 2993 2991 2990 2988 2986 2985 2983 2982 2981 2981 2980 2979 2978 2975 2973 2972 2970 2969 2969 2971 2971
3054 3052 3049 3047 3045 3043 3041 3038 3036 3034 3032 3029 3027 3025 3022 3020 3017 3015 3013 3011 3009 3007 3004 3002 2999 2997 2995 2993 2992 2989 2988 2986 2984 2982 2981 2979 2978 2976 2975 2973 2973 2972 2972 2972 2969 2967 2966 2964 2962 2961 2962 2961
Wind_Speed
25 26 26 26 26 27 27 27 27 27 27 27 27 27 28 28 28 27 27 27 27 26 26 27 28 28 28 28 28 28 28 28 29 28 28 28 28 28 27 27 27 26 26 25 24 24 24 24 24 24 24 24
27 27 27 27 27 27 28 28 28 28 28 28 28 28 28 28 28 28 28 28 28 28 28 28 29 29 29 29 29 28 28 29 29 29 29 29 29 29 28 28 28 28 28 27 26 25 25 25 25 25 25 25
26 26 26 26 26 27 28 28 28 29 29 29 28 28 28 28 28 28 28 28 29 29 29 29 29 29 30 30 30 30 29 29 29 30 30 30 30 30 30 30 30 29 29 29 28 27 27 26 26 26 26 26
23 24 24 24 25 25 26 27 27 28 28 28 28 28 28 28 28 28 28 28 28 28 29 29 29 29 29 30 30 30 30 30 30 31 31 31 31 31 31 31 31 31 30 31 30 30 29 28 28 27 27 27
21 22 22 23 23 24 25 25 26 26 26 26 27 27 27 28 28 28 28 28 28 28 28 28 28 28 29 29 30 30 31 31 32 32 32 32 32 32 32 32 32 32 32 32 32 31 31 31 30 30 29 29
21 22 22 23 23 24 24 25 26 26 26 27 27 27 28 28 29 29 29 29 29 29 28 28 28 28 28 29 29 30 30 31 32 33 34 34 34 33 33 33 33 33 33 33 33 33 33 32 32 32 31 31
21 22 23 23 24 25 25 26 27 28 28 28 29 29 30 30 31 31 31 31 31 31 30 30 30 30 29 30 30 30 31 31 32 33 34 35 35 35 35 35 35 34 34 34 35 35 35 34 34 34 33 33
23 24 24 25 25 26 26 27 28 29 29 30 31 31 32 32 33 33 33 34 34 33 33 33 32 32 32 32 32 32 32 33 33 34 35 36 36 36 37 37 37 36 36 36 36 36 36 36 36 36 35 35
24 24 25 26 26 27 27 28 28 29 30 31 32 32 33 34 34 35 35 35 36 35 35 35 34 34 34 34 34 35 35 35 35 36 36 36 37 37 38 38 38 38 38 38 37 37 37 38 38 38 38 37
23 24 25 25 26 27 27 28 29 30 31 31 32 33 34 35 36 36 37 37 37 37 37 37 37 37 36 36 36 36 37 37 37 38 38 38 38 39 39 39 39 39 39 40 39 39 39 39 39 39 40 39
23 24 25 26 27 28 28 29 30 30 31 32 33 34 34 35 36 37 37 38 38 39 39 39 39 39 39 39 39 39 38 39 39 39 40 40 40 40 40 40 40 40 40 41 41 41 41 41 41 41 41 41
23 24 25 26 27 28 29 29 30 31 31 32 33 34 35 35 36 37 37 38 38 39 39 40 40 40 41 41 41 42 42 41 41 41 41 41 42 42 42 42 42 42 42 42 42 42 42 42 42 42 42 43
22 23 24 25 26 27 28 29 29 30 31 32 33 33 34 35 36 36 37 38 39 39 40 40 40 41 41 42 43 43 44 44 44 44 44 44 43 43 43 44 44 43 43 43 43 43 43 43 43 43 43 44
23 23 24 25 25 26 27 28 29 29 30 31 32 33 33 34 35 36 37 37 38 39 40 41 41 41 42 42 43 43 44 45 45 46 46 46 46 46 45 45 45 45 45 45 45 45 45 44 44 44 44 44
23 24 25 25 26 27 27 28 29 29 30 31 31 32 33 33 34 35 36 37 38 39 40 41 41 42 43 43 43 44 44 44 45 46 47 48 48 48 48 47 47 47 47 46 46 46 46 46 46 45 46 46
24 24 25 26 27 27 28 29 30 30 31 32 32 33 33 34 35 35 36 37 38 39 40 41 42 43 43 44 44 45 45 45 46 46 46 47 48 49 49 49 49 49 49 48 48 48 48 48 47 47 47 47
24 24 25 26 27 28 29 29 30 31 32 32 33 34 35 35 36 36 37 38 39 39 41 41 42 43 44 45 45 46 46 47 47 47 47 47 48 48 49 50 50 50 51 51 50 50 50 49 49 48 48 47
23 24 25 26 27 28 29 30 30 31 32 33 33 34 35 36 36 37 38 39 40 40 41 42 43 44 45 46 46 47 47 48 48 49 49 49 49 49 49 49 49 50 50 51 51 51 51 51 50 50 50 49
24 25 26 26 27 28 29 30 31 32 32 33 34 34 35 36 37 38 39 40 41 42 43 43 44 45 46 47 48 49 49 50 50 50 51 51 51 50 50 50 50 50 50 50 50 51 51 51 51 51 51 51
25 25 26 27 28 29 30 31 32 33 34 35 36 37 38 39 40 41 42 42 43 44 45 46 47 48 48 49 50 51 52 52 53 53 53 54 54 53 53 52 52 52 51 51 50 50 50 51 51 52 52 52
26 27 28 29 30 31 32 34 35 36 37 38 38 39 40 41 42 43 44 45 46 46 47 48 49 50 50 51 52 53 54 55 56 56 57 57 57 57 56 56 55 55 54 54 52 51 50 50 50 51 52 53
27 28 30 31 32 33 34 35 36 37 38 39 40 41 42 42 43 44 45 46 47 48 49 50 50 51 52 53 53 54 55 56 57 58 59 59 60 60 60 59 59 58 58 57 56 54 53 51 51 50 50 52
28 29 30 31 33 34 35 36 37 38 39 40 41 41 42 43 44 45 46 46 47 48 49 50 50 51 52 53 54 55 55 56 58 59 60 61 61 61 61 62 62 62 61 60 59 58 56 55 54 52 51 51
28 29 31 32 33 34 35 37 38 39 39 40 41 42 42 43 44 45 46 46 47 48 49 49 50 51 52 53 54 55 56 57 58 59 60 60 61 62 62 62 62 63 63 63 62 61 60 59 58 56 55 54
30 31 32 33 34 35 36 37 38 39 40 41 42 42 43 44 44 45 46 47 47 48 49 49 50 51 52 53 54 55 56 57 58 59 60 61 61 62 62 62 62 63 63 64 63 62 61 60 60 60 59 58
31 32 33 34 34 35 36 37 38 39 40 41 42 43 43 44 45 46 46 47 48 48 49 50 50 51 52 52 53 54 55 56 57 59 60 61 61 62 62 62 62 62 63 63 63 63 62 60 60 61 60 60
33 33 34 35 36 36 37 39 39 40 41 42 42 43 44 45 45 46 47 48 48 49 50 50 50 51 51 52 53 53 54 55 56 57 58 59 60 61 61 61 60 61 61 62 62 62 63 62 61 61 60 60
34 35 36 36 37 38 39 40 41 42 42 43 43 44 44 45 46 46 47 48 49 49 50 51 51 51 51 52 52 53 54 54 55 56 57 57 58 59 59 59 58 58 58 59 60 60 61 61 61 61 61 60
35 36 37 38 38 39 40 41 42 43 43 43 44 44 45 46 47 47 48 48 49 50 50 51 51 51 51 52 52 53 53 54 54 55 56 56 57 57 58 58 57 57 56 56 57 58 58 59 60 60 60 60
37 37 38 39 39 40 41 42 43 44 44 44 44 45 46 48 49 49 49 49 49 50 51 51 52 52 52 52 52 53 53 54 54 55 55 55 56 56 56 57 56 56 55 55 55 56 56 57 58 59 58 59
38 39 39 40 40 41 42 43 44 44 44 45 46 46 48 49 50 50 50 51 50 50 51 51 52 52 52 52 52 53 53 54 54 55 55 55 55 55 56 56 56 56 55 54 54 55 55 55 56 57 57 58
Wind_Direction
300 300 300 301 302 302 301 300 300 299 299 297 296 295 294 293 293 293 292 291 290 290 291 291 291 290 289 289 289 288 288 286 285 283 282 280 278 275 274 272 269 267 265 264 263 262 262 262 262 261 261 261
304 304 304 304 304 303 302 302 301 301 300 299 298 296 294 293 293 292 292 291 291 290 290 290 290 290 290 289 289 288 287 286 285 284 283 282 279 277 275 274 272 270 268 266 265 264 264 264 264 263 263 263
310 309 308 308 307 306 304 303 302 301 301 300 299 298 296 295 294 293 292 292 291 291 290 290 289 290 290 289 289 289 288 286 285 284 283 282 281 279 276 274 273 272 270 269 267 266 266 266 266 265 265 264
309 308 307 306 305 303 302 301 300 299 299 298 297 296 295 294 293 293 292 292 291 291 291 290 290 290 289 289 288 288 288 287 286 284 283 282 280 279 277 275 273 272 270 269 268 268 267 267 267 266 265 265
302 301 300 298 297 295 294 293 292 292 292 292 292 291 291 290 290 290 291 291 292 292 292 291 291 290 290 289 288 287 286 286 286 285 284 282 280 278 277 276 274 272 270 269 268 267 267 267 267 266 266 265
292 291 291 289 289 288 287 287 287 288 287 287 287 288 288 288 288 288 289 290 290 291 291 291 291 290 289 288 287 286 285 284 284 283 283 282 281 280 277 275 274 272 271 269 268 266 265 265 265 265 265 265
289 289 289 289 289 289 289 289 289 289 288 288 287 287 287 287 287 287 288 288 289 290 290 290 290 289 288 287 285 284 283 282 282 282 281 281 281 280 279 277 275 273 271 270 268 267 265 264 264 264 264 264
292 291 291 291 291 291 291 291 291 291 290 290 290 289 289 288 289 289 289 290 290 291 291 291 291 290 289 288 286 284 282 281 280 280 280 280 280 279 279 278 276 275 273 271 269 267 266 265 264 263 263 263
296 296 295 294 293 293 292 291 291 291 291 291 291 291 291 291 291 291 291 291 291 291 291 291 291 291 290 289 288 286 284 282 280 279 278 278 278 278 278 278 277 276 274 273 271 269 266 265 264 263 263 262
301 301 301 300 300 299 298 297 296 296 295 295 294 294 293 293 293 293 293 293 292 292 292 292 292 291 290 290 289 288 287 286 284 282 280 278 278 277 277 276 276 276 275 274 273 272 270 267 264 263 262 262
305 305 306 306 306 306 306 306 304 304 303 302 301 300 299 298 297 296 295 295 294 293 293 292 292 291 290 290 289 288 287 286 286 284 283 281 279 278 277 276 276 275 275 274 273 273 272 270 268 265 263 262
313 313 313 313 313 313 312 311 310 309 308 307 306 304 304 303 302 301 300 298 297 296 295 294 293 292 291 290 289 289 288 287 286 285 284 283 282 280 279 278 277 275 275 275 274 273 272 271 270 268 266 264
319 319 318 318 317 316 315 314 314 312 311 310 309 307 306 305 304 303 302 301 300 299 298 297 296 294 293 291 290 289 288 287 287 286 285 284 283 282 280 279 278 277 276 275 275 274 273 272 271 270 269 267
320 320 319 318 317 316 315 314 314 313 312 311 310 309 308 307 306 305 304 303 302 301 300 299 298 297 295 294 292 291 290 289 288 287 285 284 283 282 281 280 279 278 276 276 275 275 274 273 272 271 270 269
320 319 318 317 316 315 314 314 313 312 311 311 310 309 308 308 307 306 305 304 303 302 301 300 299 298 297 296 294 293 291 290 289 288 287 285 284 283 282 281 280 279 277 276 275 274 274 274 273 272 271 270
318 318 317 316 315 314 314 313 312 312 311 310 310 309 308 308 307 306 305 304 303 303 302 301 300 299 298 297 296 295 294 292 291 289 288 287 285 284 283 282 280 279 278 276 275 274 273 273 273 273 272 270
316 315 315 314 314 314 313 313 312 311 311 311 310 310 309 308 307 306 305 304 303 302 301 300 300 299 299 298 297 296 295 294 293 291 290 288 287 285 284 283 281 280 279 277 276 275 273 272 272 272 271 270
314 313 313 313 313 313 312 312 311 311 310 310 309 309 308 307 307 306 305 304 303 302 301 300 299 298 298 297 297 296 295 295 293 292 291 290 288 287 285 284 282 280 279 278 277 276 275 274 272 272 271 270
313 313 313 313 313 313 312 312 311 311 310 310 310 310 309 308 307 306 305 305 304 303 302 301 300 299 298 297 296 296 295 294 293 292 291 290 289 288 286 285 284 282 280 278 277 275 274 274 273 272 271 270
312 313 313 313 314 314 314 314 314 314 314 314 314 313 313 312 310 309 308 307 306 305 304 303 302 301 300 299 298 297 296 295 294 293 292 290 289 288 287 285 285 283 282 280 278 277 275 274 273 271 271 270
313 314 314 315 316 317 317 318 318 318 318 317 316 315 314 313 312 310 309 308 307 306 305 304 303 302 302 301 300 299 298 297 295 294 293 292 290 289 287 286 284 283 282 281 280 278 277 275 274 272 271 270
314 314 316 317 318 319 319 319 319 318 318 317 316 315 314 312 311 310 309 307 306 305 304 304 303 302 301 300 299 298 297 297 296 295 294 293 292 290 289 287 285 283 282 281 280 279 278 277 275 274 272 270
311 312 314 316 317 317 317 317 317 317 316 315 315 314 312 311 309 308 307 306 305 304 303 302 301 301 300 299 298 297 296 295 295 294 293 292 291 290 289 288 287 285 283 281 279 278 277 276 275 274 273 272
309 311 313 314 315 316 315 315 315 315 314 313 313 312 311 309 308 307 306 305 304 303 303 302 301 300 299 298 298 297 296 295 294 293 293 292 291 290 289 288 286 285 284 282 280 278 277 276 275 273 272 271
310 312 313 313 313 313 312 312 312 311 311 311 311 310 310 309 308 307 306 305 304 304 303 302 301 300 300 299 298 297 296 295 295 294 293 292 291 290 289 288 286 285 284 282 280 278 276 275 275 273 272 270
310 310 310 310 310 309 309 309 308 308 309 309 309 309 309 309 308 307 307 306 305 304 304 303 302 301 300 298 297 296 296 295 294 294 293 292 291 291 290 289 288 286 285 283 281 279 276 273 272 271 270 269
308 308 307 307 307 307 307 307 307 307 308 309 309 309 309 309 308 308 307 306 306 305 304 303 302 301 300 298 297 296 295 294 293 292 292 291 290 290 289 288 288 287 286 284 283 281 279 276 272 270 268 267
305 305 305 305 306 306 306 307 307 307 308 309 310 310 309 309 308 308 307 307 306 305 304 303 302 301 300 298 297 296 295 294 293 292 291 290 289 289 288 287 287 286 285 285 283 282 280 278 275 272 269 266
304 304 304 305 305 306 306 306 307 307 308 309 309 310 309 309 308 308 307 306 306 305 304 303 302 301 300 299 298 297 296 294 293 292 291 290 289 288 287 286 285 285 284 284 283 282 281 279 277 274 272 268
304 304 304 305 305 305 306 306 306 306 308 309 309 310 310 309 309 308 307 307 306 305 304 303 303 302 301 300 298 297 296 295 294 293 292 291 290 289 288 287 285 284 283 283 283 282 281 280 279 276 274 271
304 304 304 304 305 305 305 305 305 306 308 309 310 310 310 310 309 309 308 307 306 305 304 303 303 302 301 300 298 297 296 295 294 293 292 291 290 289 288 287 286 284 283 282 282 282 281 280 280 279 277 274